�������l�o���
Date,Time,MP-1(��Sv/h),MP-2(��Sv/h),MP-3(��Sv/h),MP-4(��Sv/h),MP-5(��Sv/h),MP-6(��Sv/h),MP-7(��Sv/h),MP-8(��Sv/h),����,����(m/s),���J
2017/09/18,00:00,0.894,1.394,0.896,1.673,1.074,0.501,0.902,0.836,��쓌,16.6,�L
2017/09/18,00:10,0.894,1.396,0.897,1.676,1.077,0.503,0.905,0.838,��쓌,16.0,�L
2017/09/18,00:20,0.896,1.398,0.900,1.677,1.081,0.502,0.907,0.837,��쓌,20.4,�L
2017/09/18,00:30,0.897,1.394,0.899,1.674,1.075,0.502,0.904,0.839,��쓌,19.4,�L
2017/09/18,00:40,0.897,1.399,0.900,1.678,1.081,0.501,0.907,0.837,��쓌,18.3,�L
2017/09/18,00:50,0.899,1.399,0.901,1.681,1.085,0.501,0.906,0.837,��쓌,19.4,�L
2017/09/18,01:00,0.898,1.404,0.906,1.686,1.084,0.502,0.908,0.839,��쓌,19.8,�L
2017/09/18,01:10,0.901,1.409,0.906,1.688,1.090,0.502,0.910,0.839,��쓌,16.4,��
2017/09/18,01:20,0.899,1.407,0.909,1.691,1.094,0.502,0.910,0.838,��쓌,16.9,�L
2017/09/18,01:30,0.883,1.378,0.894,1.667,1.075,0.497,0.898,0.830,��쓌,14.6,�L
2017/09/18,01:40,0.888,1.387,0.900,1.670,1.082,0.498,0.903,0.834,��쓌,15.8,�L
2017/09/18,01:50,0.893,1.396,0.902,1.679,1.087,0.498,0.906,0.835,��쓌,18.0,��
2017/09/18,02:00,0.898,1.401,0.906,1.684,1.093,0.500,0.906,0.840,��쓌,15.8,�L
2017/09/18,02:10,0.901,1.403,0.908,1.689,1.095,0.499,0.907,0.839,��쓌,13.8,�L
2017/09/18,02:20,0.899,1.403,0.908,1.691,1.099,0.500,0.909,0.839,��쓌,16.6,�L
2017/09/18,02:30,0.897,1.403,0.906,1.688,1.097,0.500,0.910,0.837,��,14.6,�L
2017/09/18,02:40,0.900,1.406,0.910,1.690,1.097,0.500,0.910,0.839,��쓌,16.0,�L
2017/09/18,02:50,0.901,1.405,0.909,1.698,1.100,0.501,0.909,0.840,��쓌,17.1,�L
2017/09/18,03:00,0.904,1.406,0.913,1.694,1.100,0.499,0.908,0.839,��쓌,17.4,�L
2017/09/18,03:10,0.901,1.408,0.912,1.697,1.101,0.501,0.910,0.843,��쓌,17.6,�L
2017/09/18,03:20,0.904,1.410,0.912,1.697,1.104,0.502,0.912,0.841,��쓌,17.1,�L
2017/09/18,03:30,0.905,1.410,0.915,1.697,1.106,0.502,0.910,0.842,��쓌,20.4,�L
2017/09/18,03:40,0.905,1.412,0.914,1.700,1.109,0.501,0.910,0.844,��쓌,22.4,�L
2017/09/18,03:50,0.908,1.411,0.912,1.704,1.107,0.501,0.912,0.843,-,CALM,�L
2017/09/18,04:00,0.905,1.404,0.914,1.696,1.104,0.501,0.912,0.843,��쓌,22.0,�L
2017/09/18,04:10,0.902,1.403,0.912,1.696,1.100,0.501,0.911,0.841,-,CALM,�L
2017/09/18,04:20,0.904,1.397,0.913,1.693,1.100,0.501,0.913,0.843,-,CALM,�L
2017/09/18,04:30,0.899,1.390,0.908,1.684,1.091,0.500,0.908,0.841,��,14.4,�L
2017/09/18,04:40,0.896,1.386,0.908,1.679,1.091,0.499,0.907,0.842,��쓌,13.3,�L
2017/09/18,04:50,0.896,1.392,0.907,1.680,1.092,0.500,0.907,0.840,��쓌,16.9,�L
2017/09/18,05:00,0.898,1.395,0.910,1.684,1.101,0.501,0.909,0.841,��,17.2,�L
2017/09/18,05:10,0.901,1.403,0.912,1.688,1.102,0.502,0.910,0.840,��,22.9,�L
2017/09/18,05:20,0.902,1.400,0.910,1.688,1.102,0.503,0.912,0.841,��쓌,18.3,�L
2017/09/18,05:30,0.903,1.403,0.912,1.691,1.104,0.503,0.912,0.844,��쓌,14.7,�L
2017/09/18,05:40,0.904,1.403,0.916,1.694,1.106,0.503,0.912,0.844,-,CALM,�L
2017/09/18,05:50,0.906,1.405,0.913,1.697,1.105,0.503,0.912,0.844,��,15.8,�L
2017/09/18,06:00,0.909,1.407,0.917,1.701,1.109,0.503,0.915,0.845,��,16.9,�L
2017/09/18,06:10,0.908,1.408,0.917,1.699,1.111,0.504,0.914,0.844,��,12.7,�L
2017/09/18,06:20,0.908,1.412,0.919,1.704,1.110,0.504,0.916,0.844,��,13.5,�L
2017/09/18,06:30,0.911,1.413,0.919,1.706,1.113,0.504,0.916,0.846,��,13.0,�L
2017/09/18,06:40,0.910,1.413,0.918,1.702,1.111,0.501,0.916,0.846,�쐼,7.7,�L
2017/09/18,06:50,0.908,1.407,0.917,1.698,1.104,0.501,0.910,0.844,��쐼,7.6,�L
2017/09/18,07:00,0.909,1.409,0.919,1.698,1.108,0.502,0.910,0.844,��,6.1,��
2017/09/18,07:10,0.910,1.410,0.917,1.698,1.111,0.503,0.910,0.842,��쓌,9.6,��
2017/09/18,07:20,0.911,1.412,0.920,1.701,1.112,0.503,0.911,0.844,��쓌,10.5,��
2017/09/18,07:30,0.909,1.413,0.919,1.702,1.112,0.502,0.913,0.846,��쓌,9.4,��
2017/09/18,07:40,0.911,1.415,0.920,1.705,1.116,0.504,0.912,0.845,��쓌,8.8,��
2017/09/18,07:50,0.909,1.415,0.920,1.707,1.116,0.503,0.913,0.846,��쓌,9.6,��
2017/09/18,08:00,0.911,1.419,0.923,1.708,1.119,0.505,0.914,0.846,��쓌,10.2,��
2017/09/18,08:10,0.911,1.418,0.922,1.709,1.120,0.504,0.913,0.845,��쓌,6.6,��
2017/09/18,08:20,0.913,1.419,0.923,1.712,1.119,0.503,0.917,0.847,�쓌,5.5,��
2017/09/18,08:30,0.915,1.421,0.923,1.713,1.120,0.503,0.916,0.847,��쓌,6.1,��
2017/09/18,08:40,0.915,1.426,0.923,1.711,1.126,0.503,0.913,0.847,��쓌,7.1,��
2017/09/18,08:50,0.915,1.424,0.924,1.714,1.126,0.503,0.916,0.847,��,5.8,��
2017/09/18,09:00,0.916,1.430,0.925,1.713,1.130,0.504,0.918,0.847,���쐼,4.6,��
2017/09/18,09:10,0.918,1.427,0.929,1.716,1.129,0.506,0.918,0.848,�쐼,3.8,��
2017/09/18,09:20,0.919,1.429,0.929,1.719,1.129,0.506,0.920,0.850,��,5.1,��
2017/09/18,09:30,0.916,1.429,0.929,1.718,1.131,0.504,0.919,0.848,�쐼,4.0,��
2017/09/18,09:40,0.919,1.431,0.930,1.721,1.134,0.506,0.921,0.848,�쐼,7.2,��
2017/09/18,09:50,0.918,1.433,0.930,1.725,1.136,0.506,0.920,0.848,�쐼,8.1,��
2017/09/18,10:00,0.919,1.431,0.931,1.724,1.135,0.504,0.921,0.848,�쐼,7.4,��
2017/09/18,10:10,0.919,1.433,0.932,1.727,1.136,0.507,0.923,0.850,�쐼,7.6,��
2017/09/18,10:20,0.918,1.437,0.931,1.726,1.137,0.505,0.922,0.851,���쐼,3.7,��
2017/09/18,10:30,0.920,1.432,0.931,1.727,1.138,0.506,0.924,0.851,��쐼,2.9,��
2017/09/18,10:40,0.919,1.435,0.930,1.727,1.140,0.505,0.922,0.850,�쐼,3.5,��
2017/09/18,10:50,0.918,1.436,0.931,1.727,1.139,0.506,0.921,0.849,��,4.4,��
2017/09/18,11:00,0.919,1.434,0.933,1.726,1.143,0.505,0.925,0.853,��,6.2,��
2017/09/18,11:10,0.922,1.438,0.934,1.727,1.141,0.507,0.922,0.849,���쐼,5.1,��
2017/09/18,11:20,0.921,1.439,0.935,1.730,1.143,0.507,0.925,0.851,���쐼,7.7,��
2017/09/18,11:30,0.921,1.441,0.936,1.730,1.142,0.508,0.926,0.852,�쐼,7.5,��
2017/09/18,11:40,0.923,1.441,0.938,1.729,1.147,0.509,0.925,0.851,�쐼,7.7,��
2017/09/18,11:50,0.923,1.441,0.939,1.733,1.149,0.509,0.927,0.852,�쐼,7.1,��
2017/09/18,12:00,0.922,1.442,0.940,1.733,1.149,0.509,0.926,0.852,���쐼,7.5,��
2017/09/18,12:10,0.923,1.443,0.938,1.736,1.150,0.509,0.927,0.852,���쐼,6.8,��
2017/09/18,12:20,0.922,1.444,0.938,1.736,1.150,0.509,0.926,0.854,���쐼,6.6,��
2017/09/18,12:30,0.924,1.442,0.939,1.737,1.151,0.509,0.927,0.854,�쐼,4.7,��
2017/09/18,12:40,0.924,1.441,0.938,1.738,1.152,0.511,0.927,0.853,���쐼,7.4,��
2017/09/18,12:50,0.925,1.443,0.940,1.740,1.155,0.510,0.928,0.852,��,7.9,��
2017/09/18,13:00,0.924,1.442,0.939,1.740,1.155,0.511,0.927,0.855,���쐼,6.7,��
2017/09/18,13:10,0.927,1.440,0.939,1.739,1.155,0.510,0.927,0.855,��,8.9,��
2017/09/18,13:20,0.926,1.442,0.938,1.739,1.155,0.510,0.928,0.855,���쐼,7.6,��
2017/09/18,13:30,0.925,1.446,0.941,1.741,1.154,0.510,0.928,0.855,��,6.2,��
2017/09/18,13:40,0.927,1.445,0.941,1.742,1.154,0.508,0.927,0.855,��,7.7,��
2017/09/18,13:50,0.926,1.446,0.943,1.743,1.157,0.509,0.929,0.856,��,6.1,��
2017/09/18,14:00,0.925,1.446,0.939,1.745,1.157,0.509,0.928,0.855,��,5.4,��
2017/09/18,14:10,0.924,1.447,0.943,1.742,1.159,0.510,0.928,0.855,��,7.2,��
2017/09/18,14:20,0.928,1.448,0.943,1.745,1.161,0.509,0.929,0.855,���k��,6.5,��
2017/09/18,14:30,0.927,1.446,0.940,1.744,1.160,0.509,0.926,0.854,��,5.7,��
2017/09/18,14:40,0.926,1.450,0.945,1.747,1.161,0.510,0.929,0.856,��,6.7,��
2017/09/18,14:50,0.926,1.451,0.947,1.745,1.162,0.509,0.928,0.857,���k��,7.2,��
2017/09/18,15:00,0.927,1.452,0.948,1.748,1.165,0.508,0.928,0.856,���k��,7.8,��
2017/09/18,15:10,0.926,1.452,0.944,1.746,1.164,0.510,0.930,0.856,���k��,7.1,��
2017/09/18,15:20,0.930,1.450,0.944,1.749,1.163,0.510,0.929,0.856,���k��,8.9,��
2017/09/18,15:30,0.927,1.452,0.944,1.753,1.164,0.509,0.929,0.857,��,9.1,��
2017/09/18,15:40,0.926,1.451,0.945,1.751,1.161,0.509,0.929,0.854,��,8.0,��
2017/09/18,15:50,0.926,1.454,0.946,1.752,1.163,0.510,0.928,0.856,��,9.6,��
2017/09/18,16:00,0.927,1.455,0.945,1.748,1.164,0.511,0.929,0.858,��,9.8,��
2017/09/18,16:10,0.930,1.454,0.947,1.748,1.167,0.511,0.930,0.856,��,10.6,��
2017/09/18,16:20,0.926,1.454,0.947,1.751,1.163,0.509,0.929,0.854,��,10.2,��
2017/09/18,16:30,0.928,1.456,0.945,1.749,1.166,0.511,0.928,0.857,���k��,10.4,��
2017/09/18,16:40,0.928,1.453,0.945,1.748,1.165,0.511,0.929,0.856,���k��,9.6,��
2017/09/18,16:50,0.929,1.454,0.946,1.749,1.166,0.509,0.929,0.856,���k��,7.9,��
2017/09/18,17:00,0.929,1.454,0.946,1.751,1.167,0.510,0.929,0.856,���k��,7.5,��
2017/09/18,17:10,0.929,1.452,0.945,1.754,1.168,0.510,0.931,0.855,���k��,7.1,��
2017/09/18,17:20,0.926,1.454,0.947,1.752,1.168,0.511,0.930,0.858,�k��,10.6,��
2017/09/18,17:30,0.927,1.456,0.946,1.752,1.167,0.509,0.930,0.858,���k��,10.5,��
2017/09/18,17:40,0.927,1.453,0.946,1.756,1.169,0.508,0.929,0.859,���k��,12.4,��
2017/09/18,17:50,0.925,1.456,0.945,1.756,1.166,0.509,0.930,0.859,�k��,9.3,��
2017/09/18,18:00,0.926,1.457,0.947,1.755,1.168,0.510,0.931,0.861,�k��,9.3,��
2017/09/18,18:10,0.926,1.455,0.945,1.756,1.169,0.508,0.930,0.858,�k��,8.3,��
2017/09/18,18:20,0.925,1.458,0.946,1.754,1.168,0.508,0.930,0.859,�k��,7.7,��
2017/09/18,18:30,0.925,1.455,0.947,1.754,1.168,0.510,0.932,0.860,�k��,3.1,��
2017/09/18,18:40,0.925,1.459,0.947,1.757,1.171,0.510,0.931,0.860,�k�k��,3.7,��
2017/09/18,18:50,0.926,1.456,0.946,1.756,1.171,0.510,0.931,0.859,�k�k��,3.9,��
2017/09/18,19:00,0.927,1.458,0.948,1.758,1.171,0.508,0.930,0.860,�k�k��,4.6,��
2017/09/18,19:10,0.928,1.456,0.947,1.756,1.169,0.509,0.930,0.860,�k��,4.2,��
2017/09/18,19:20,0.927,1.458,0.949,1.756,1.173,0.510,0.930,0.859,�k,2.9,��
2017/09/18,19:30,0.926,1.458,0.948,1.757,1.171,0.508,0.929,0.859,�k��,3.8,��
2017/09/18,19:40,0.928,1.460,0.950,1.757,1.169,0.508,0.931,0.858,�k��,2.8,��
2017/09/18,19:50,0.926,1.458,0.949,1.758,1.170,0.510,0.933,0.858,�k�k��,2.6,��
2017/09/18,20:00,0.926,1.456,0.948,1.755,1.173,0.510,0.930,0.858,�k,2.8,��
2017/09/18,20:10,0.927,1.458,0.948,1.754,1.171,0.511,0.931,0.859,�k,3.8,��
2017/09/18,20:20,0.928,1.457,0.947,1.756,1.172,0.509,0.929,0.857,�k,3.3,��
2017/09/18,20:30,0.927,1.458,0.947,1.756,1.174,0.511,0.931,0.858,�k�k��,2.9,��
2017/09/18,20:40,0.926,1.455,0.948,1.757,1.174,0.509,0.931,0.858,�k,3.2,��
2017/09/18,20:50,0.928,1.461,0.946,1.755,1.169,0.510,0.930,0.859,�k�k��,4.2,��
2017/09/18,21:00,0.927,1.456,0.949,1.755,1.170,0.508,0.929,0.858,�k��,3.8,��
2017/09/18,21:10,0.926,1.458,0.948,1.754,1.171,0.509,0.930,0.858,�k�k��,3.4,��
2017/09/18,21:20,0.927,1.460,0.946,1.755,1.171,0.508,0.930,0.859,�k��,4.6,��
2017/09/18,21:30,0.926,1.456,0.947,1.754,1.174,0.509,0.931,0.857,���k��,5.4,��
2017/09/18,21:40,0.926,1.459,0.948,1.756,1.172,0.509,0.931,0.858,�k��,5.5,��
2017/09/18,21:50,0.926,1.456,0.947,1.757,1.173,0.509,0.931,0.857,���k��,4.8,��
2017/09/18,22:00,0.927,1.459,0.949,1.754,1.170,0.510,0.930,0.860,�k��,4.9,��
2017/09/18,22:10,0.926,1.459,0.949,1.754,1.175,0.509,0.930,0.857,�k��,5.9,��
2017/09/18,22:20,0.928,1.455,0.947,1.757,1.174,0.509,0.929,0.858,�k��,6.8,��
2017/09/18,22:30,0.925,1.456,0.948,1.755,1.172,0.508,0.930,0.856,�k��,6.0,��
2017/09/18,22:40,0.927,1.459,0.949,1.757,1.173,0.509,0.930,0.859,�k��,4.7,��
2017/09/18,22:50,0.926,1.458,0.947,1.753,1.174,0.509,0.930,0.858,�k��,2.3,��
2017/09/18,23:00,0.926,1.458,0.950,1.756,1.175,0.510,0.930,0.858,���k��,1.5,��
2017/09/18,23:10,0.928,1.458,0.949,1.756,1.171,0.509,0.930,0.858,�k��,2.0,��
2017/09/18,23:20,0.924,1.456,0.948,1.752,1.174,0.510,0.931,0.857,�k��,0.6,��
2017/09/18,23:30,0.927,1.460,0.948,1.754,1.174,0.508,0.934,0.858,���k��,0.6,��
2017/09/18,23:40,0.927,1.458,0.949,1.754,1.175,0.510,0.932,0.857,-,CALM,��
2017/09/18,23:50,0.928,1.458,0.946,1.755,1.175,0.509,0.932,0.857,�쐼,1.1,��
